Weather History for KCTB - August, 2013

Change the Weather History Date:

Saturday, August 17, 2013

  Actual Average Record
Temperature  
Mean Temperature 74 °F 64 °F  
Max Temperature 88 °F 79 °F 93 °F (2001)
Min Temperature 60 °F 48 °F 33 °F (1946)
Degree Days  
Heating Degree Days 0 3  
Month to date heating degree days 23 42  
Since 1 June heating degree days 273 361  
Since 1 July heating degree days 64 128  
Cooling Degree Days 9 2  
Month to date cooling degree days 41 47  
Year to date cooling degree days 140 136  
Since 1 June cooling degree days 138 134  
Growing Degree Days 24 (Base 50)    
Moisture  
Dew Point 43 °F    
Average Humidity 39    
Maximum Humidity 60    
Minimum Humidity 17    
Precipitation  
Precipitation 0.00 in 0.04 in 0.96 in (1978)
Month to date precipitation 1.28 0.63  
Year to date precipitation 10.78 8.10  
Snow  
Snow 0.00 in - - ()
Snow Depth 0.00 in    
Sea Level Pressure  
Sea Level Pressure 29.90 in    
Wind  
Wind Speed 12 mph (West)    
Max Wind Speed 29 mph    
Max Gust Speed 35 mph    
Visibility 10 miles    
Events      
T = Trace of Precipitation, MM = Missing Value Source: NWS Daily Summary

Daily Weather History Graph

Daily Weather History Graph

Search for Another Location

Airport or City:

Trip Planner

Search our weather history database for the weather conditions in past years. The results will help you decide how hot, cold, wet, or windy it might be!

Date:

Astronomy

Aug. 17, 2013 Rise Set
Actual Time 6:26 AM MDT 8:39 PM MDT
Civil Twilight 5:51 AM MDT 9:14 PM MDT
Nautical Twilight 5:08 AM MDT 9:56 PM MDT
Astronomical Twilight 4:19 AM MDT 10:45 PM MDT
Moon 6:06 PM MDT (8/17) 2:23 AM MDT (8/17)
Length of Visible Light 15h 22m
Length of Day
14h 13m
Waxing Gibbous, 85% of the Moon is Illuminated
Aug 17
Waxing Gibbous
Aug 20
Full
Aug 28
Last Quarter
Sep 5
New
Sep 12
First Quarter

Hourly Weather History & Observations

Time (MDT) Temp. Dew Point Humidity Pressure Visibility Wind Dir Wind Speed Gust Speed Precip Events Conditions
12:56 AM 68.0 °F 45.0 °F 43% 29.88 in 10.0 mi West 11.5 mph - N/A   Clear
1:56 AM 64.0 °F 45.0 °F 50% 29.91 in 10.0 mi WNW 3.5 mph - N/A   Clear
2:56 AM 63.0 °F 46.0 °F 54% 29.91 in 10.0 mi West 5.8 mph - N/A   Clear
3:56 AM 64.9 °F 45.0 °F 48% 29.91 in 10.0 mi West 5.8 mph - N/A   Clear
4:56 AM 62.1 °F 46.0 °F 56% 29.92 in 10.0 mi WNW 8.1 mph - N/A   Clear
5:56 AM 61.0 °F 46.0 °F 58% 29.92 in 10.0 mi WNW 6.9 mph - N/A   Clear
6:56 AM 64.9 °F 45.0 °F 48% 29.94 in 10.0 mi West 9.2 mph - N/A   Clear
7:56 AM 62.1 °F 46.9 °F 58% 29.95 in 10.0 mi WSW 9.2 mph - N/A   Clear
8:56 AM 69.1 °F 46.0 °F 44% 29.95 in 10.0 mi West 13.8 mph - N/A   Clear
9:56 AM 73.0 °F 46.0 °F 38% 29.95 in 10.0 mi WSW 17.3 mph 21.9 mph N/A   Clear
10:56 AM 79.0 °F 44.1 °F 29% 29.93 in 10.0 mi WSW 16.1 mph - N/A   Clear
11:56 AM 82.0 °F 44.1 °F 26% 29.93 in 10.0 mi WSW 13.8 mph 19.6 mph N/A   Clear
12:56 PM 84.9 °F 42.1 °F 22% 29.90 in 10.0 mi West 19.6 mph 33.4 mph N/A   Clear
1:56 PM 86.0 °F 39.9 °F 20% 29.89 in 10.0 mi West 21.9 mph 29.9 mph N/A   Clear
2:56 PM 87.1 °F 37.9 °F 18% 29.88 in 10.0 mi West 24.2 mph 31.1 mph N/A   Clear
3:56 PM 87.1 °F 37.9 °F 18% 29.87 in 10.0 mi West 23.0 mph 31.1 mph N/A   Clear
4:56 PM 84.9 °F 37.9 °F 19% 29.87 in 10.0 mi West 12.7 mph 25.3 mph N/A   Scattered Clouds
5:56 PM 82.9 °F 39.0 °F 21% 29.86 in 10.0 mi WNW 13.8 mph 26.5 mph N/A   Mostly Cloudy
6:56 PM 80.1 °F 42.1 °F 26% 29.87 in 10.0 mi WSW 18.4 mph 24.2 mph N/A   Clear
7:56 PM 79.0 °F 43.0 °F 28% 29.87 in 10.0 mi WSW 19.6 mph - N/A   Clear
8:56 PM 71.1 °F 43.0 °F 36% 29.88 in 10.0 mi WSW 9.2 mph - N/A   Clear
9:56 PM 71.1 °F 44.1 °F 38% 29.88 in 10.0 mi WSW 10.4 mph - N/A   Clear
10:56 PM 69.1 °F 44.1 °F 40% 29.89 in 10.0 mi West 5.8 mph - N/A   Clear
11:56 PM 66.0 °F 44.1 °F 45% 29.90 in 10.0 mi NW 4.6 mph - N/A   Clear